Location: Baia Mare
(47.6567°N, 23.5850°E)
Time: 17:45:31
(UTC+02:00)

ISS - Pass Details

Date: 05 February 2019
Orbit: 406 x 411 km, 51.6° (Epoch: 21 March)

Event Time Altitude Azimuth Distance (km) Brightness Sun altitude
Rises 19:26:23 0° 293° (WNW) 2,350 1.2 -19.5°
Reaches altitude 10° 19:28:30 10° 290° (WNW) 1,486 0.0 -19.8°
Maximum altitude 19:31:47 60° 210° (SSW) 479 -3.4 -20.4°
Enters shadow 19:31:59 58° 190° (S) 486 -3.5 -20.4°
